Location: Bucquoy
(50.1391°N, 2.7097°E)
Time: 07:59:51
(UTC+00:00)

Nadezhda 3 Rocket - Pass Details

Date: 06 May 2021
Orbit: 956 x 1000 km, 82.9° (Epoch: 21 June)

Event Time Altitude Azimuth Distance (km) Brightness Sun altitude
Exits shadow 01:13:58 32° 233° (SW) 1,625 4.7 -20.5°
Maximum altitude 01:16:31 49° 286° (WNW) 1,256 4.5 -20.4°
Drops below altitude 10° 01:22:34 10° 1° (N) 2,731 7.3 -20.0°
Sets 01:25:11 0° 7° (N) 3,676 8.3 -19.8°
